Zurück zum Katalog

COSMOS 2251 DEB

AktivLEO
NORAD 33761·DEBRIS·🇷🇺 Russia

Gestartet Jun 16, 1993 von Plesetsk Cosmodrome

Loading…

Nächste Überflüge (nächste 24 Stunden)

TLE

AktuellSource: Space-Track

Epoche: Sep 13, 2026, 21:39 UTC

1 33761U 93036J   26256.90227981  .00000655  00000-0  20232-3 0  9998
2 33761  74.0337 101.3246 0022417 119.2747 348.3831 14.43179230922030

Verfolge COSMOS 2251 DEB in Echtzeit mit AllMySat

Download on the App Store